Regional Weather Roundup
Issued by NWS Charleston, SC

Current Version | Previous Version | Graphics & Text | Print | Product List | Glossary On
Versions: 1 2 3 4 5 6 7 8 9 10 11 12 13 14 15 16 17 18 19 20 21 22 23 24 25 26 27 28 29 30 31 32 33 34 35 36 37 38 39 40 41 42 43 44 45 46 47 48 49 50
000 ASUS42 KCHS 050427 RWRCHS REGIONAL WEATHER ROUNDUP NATIONAL WEATHER SERVICE CHARLESTON SC 1100 PM EST SUN DEC 04 2016 NOTE: "FAIR" INDICATES FEW OR NO CLOUDS BELOW 12,000 FEET WITH NO SIGNIFICANT WEATHER AND/OR OBSTRUCTIONS TO VISIBILITY. NOT ALL STATIONS ARE QUALITY CONTROLLED. USE DATA WITH CAUTION... ESPECIALLY DEWPOINT OBSERVATIONS. SCZ027-030-031-034>040-042>050-050500- ...SOUTHEAST SOUTH CAROLINA... CITY SKY/WX TMP DP RH WIND PRES REMARKS N CHARLESTON CLOUDY 58 52 80 CALM 30.02F WATERFRONT PRK N/A 60 57 89 VRB2 30.01F MOUNT PLEASANT CLOUDY 59 57 94 SE5 30.02F JOHNS ISLAND CLOUDY 68 63 83 S9 30.01F PINOPOLIS N/A 52 48 87 E6 29.95F MONCKS CORNER DRIZZLE 50 46 87 CALM 30.01F SUMMERVILLE CLOUDY 52 50 93 CALM 30.02F BEAUFORT MCAS CLOUDY 61 56 83 CALM 30.01F BEAUFORT ARPT CLOUDY 68 63 83 S8G17 30.00F HILTON HEAD IS MOCLDY 68 64 88 SE10 30.02S WALTERBORO DRIZZLE 54 54 100 CALM 30.02F ALLENDALE CLOUDY 50 48 93 CALM 30.02F ...SOUTHERN MIDLANDS AND PEE DEE... CITY SKY/WX TMP DP RH WIND PRES REMARKS GEORGETOWN NOT AVBL KINGSTREE DRIZZLE 45 45 100 CALM 30.03F ORANGEBURG LGT RAIN 46 45 96 N7 30.05S BARNWELL NOT AVBL AIKEN HVY RAIN 43 43 100 N5 30.08R MANNING NOT AVBL COLUMBIA RAIN 46 44 93 NE5 30.05F FOG SUMTER LGT RAIN 45 43 93 NE6 30.04S FLORENCE LGT RAIN 45 45 100 E6 30.06F MYRTLE BEACH CLOUDY 54 50 87 N6 30.06F N MYRTLE BEACH CLOUDY 55 54 96 E8 30.04F $$ GAZ063-065-086>088-099>101-113>116-118-119-134>141-150-050500- ...SOUTHEAST GEORGIA... CITY SKY/WX TMP DP RH WIND PRES REMARKS SAVANNAH ARPT MOCLDY 62 57 83 CALM 30.01F HUNTER AAF MOCLDY 67 67 100 S6 29.99S FORT STEWART CLOUDY 62 59 89 CALM 29.98F STATESBORO DRIZZLE 54 53 97 N3 30.01F SYLVANIA LGT RAIN N/A N/A N/A CALM 30.03F CLAXTON CLOUDY 59 59 100 CALM 30.00F ...CSRA...CENTRAL AND FAR SOUTHEAST GEORGIA... CITY SKY/WX TMP DP RH WIND PRES REMARKS THOMSON CLOUDY 47 47 100 CALM 30.10F AUGUSTA-BUSH RAIN 48 46 93 N6 30.04F FOG AUGUSTA-DANIEL LGT RAIN 47 43 86 N6 30.05F FOG SWAINSBORO LGT RAIN 50 48 93 MISG 30.03S VIDALIA RAIN 57 57 100 CALM 30.01S EASTMAN RAIN 52 52 99 CALM 30.05R HAZLEHURST CLOUDY 62 62 100 NW3 30.01R ALMA MOCLDY 65 63 93 SE8 29.98F WAYCROSS CLOUDY 68 67 96 S5 30.00F JESUP MOCLDY 68 66 94 S5 30.00F BAXLEY FAIR 63 63 100 CALM 29.99F BRUNSWICK MOCLDY 70 66 88 S12G21 30.02S SAINT SIMONS MOCLDY 67 63 87 S9G17 30.01S $$ SCZ027-028-034-036>038-045-046-048>050-GAZ119-141-050500- ...LAKE AND SUPPLEMENTAL COASTAL OBSERVATIONS... STATION/POSITION TIME TEMP WIND PRES WAVE SWELL AIR SEA DIR/SP/G HT/PER HT/PER/DIR (UTC) (F) (DEG/KT/KT) (MB) (FT/S) (FT/S/D) WINYAH BAY 0345 61 70/ 4 1017.0F LAKE MURRAY 0350 44 CALM / 4 1017.9F ACE BASIN NERRS 0345 59 360/ 1 1016.0F FORT PULASKI 0400 67 61 170/ 5/ 9 1016.4 SAPELO ISLAND 0400 66 180/ 10 1016.0 $$ ANZ835-935-AMZ111-154-330-350-352-354-370-450-454-472-050500- ...C-MAN AND BUOY OBSERVATIONS... STATION/POSITION TIME TEMP WIND PRES WAVE SWELL AIR SEA DIR/SP/G HT/PER HT/PER/DIR (UTC) (F) (DEG/KT/KT) (MB) (FT/S) (FT/S/D) BUOY 41004 0350 73 75 170/ 21/ 25 1016.3F 5/ 5 2/100/ 8 BUOY 41008 0350 69 65 160/ 16/ 17 1015.6F 4/ 5 2/ 80/ 8 FOLLY BEACH CMAN 0400 65 170/ 12/ 12 1017.0F CAPERS NEARSHORE 0308 67 62 180/ 10/ 14 1017.1F FRIPP NEARSHORE 0408 67 62 170/ 10/ 14 1015.5F STATION/POSITION TIME TEMP WIND PRES WAVE SWELL AIR SEA DIR/SP/G HT/PER HT/PER/DIR (UTC) (F) (DEG/KT/KT) (MB) (FT/S) (FT/S/D) 5E ST. MARYS GA 0400 65 N/A 4/ 5 FRYING PAN BUOY 0410 71 74 170/ 19/ 25 1017.3 BUOY 41025 0350 62 74 140/ 8/ 12 1020.1F 3/ 9 3/ 40/ 9 CAPE LOOKOUT NC 0400 59 100/ 13/ 15 1018.5F BUOY 41002 0350 67 73 150/ 10/ 14 1021.1F 4/ 9 3/360/ 9 BUOY 41010 NOT AVBL ST AUGUSTINE FL 0400 69 68 180/ 8/ 8 1018.0F $$

USA.gov is the U.S. government's official web portal to all federal, state and local government web resources and services.